Terug naar catalogus

FENGYUN 1C DEB

ActiefSSO
NORAD 30954·DEBRIS·🇨🇳 China

Gelanceerd May 10, 1999 vanaf Taiyuan Satellite Launch Center

Loading…

Volgende Passages (komende 24 uur)

TLE

VersSource: Space-Track

Epoch: Sep 14, 2026, 06:06 UTC

1 30954U 99025BAU 26257.25455168  .00001148  00000-0  55870-3 0  9996
2 30954  98.7159 356.1853 0127786 119.7240 268.9633 14.15865528  2844

Volg FENGYUN 1C DEB in realtime met AllMySat

Download on the App Store